Location: Baia Mare
(47.6567°N, 23.5850°E)
Time: 19:22:01
(UTC+03:00)

ISS - Pass Details

Date: 01 June 2018
Orbit: 402 x 406 km, 51.6° (Epoch: 22 June)

Event Time Altitude Azimuth Distance (km) Brightness Sun altitude
Rises 23:20:28 0° 293° (WNW) 2,324 0.9 -14.9°
Reaches altitude 10° 23:22:34 10° 291° (WNW) 1,461 -0.3 -15.1°
Maximum altitude 23:25:49 68° 208° (SSW) 437 -3.9 -15.4°
Enters shadow 23:26:53 38° 137° (SE) 635 -3.4 -15.4°
